Alcyone — WCO6628 — position and weather

sailwx.info

Track history (hours):
 
Tides and Currents Weather Stations Pressure Air Temp Water Temp Dewpoint Dewpoint Depression Visibility Wind Speed Wind Dir Waves Ship Positions

Alcyone

Owner: MUTO, HIRONAO, LA PALMA, CA. More information available from US FCC via Universal Licensing System and Coast Guard Vessel Documentation Center.

Last reported at 2017-Oct-19 17:30 UTC. Time now 2017-Oct-20 01:27 UTC.
Position N 39°02' W 076°32'.

Type: Pleasure craft. MMSI: 338071737.

Date/timePositionNaut miles runAvg speedWind from/ knotsBaromVisibWave heightAir tempDewpointWater temp
2017-Oct-19 17:30N 39°02' W 076°32'3 5.2
2017-Oct-19 17:00N 39°00' W 076°30'2 3.3
2017-Oct-19 16:30N 38°59' W 076°28'2 4.5
2017-Oct-19 16:00N 38°57' W 076°26'2 3.6
2017-Oct-19 15:30N 38°55' W 076°25'3 2.9
2017-Oct-19 14:28N 38°53' W 076°27'2 4.3
2017-Oct-19 14:01N 38°52' W 076°29'2 4.7
2017-Oct-19 13:30N 38°51' W 076°32'  
2017-Oct-12 14:16N 38°51' W 076°32'0 1.7
2017-Oct-12 14:00N 38°51' W 076°32'2 0.1
2017-Oct-11 19:05N 38°53' W 076°32'0 4.4
2017-Oct-11 19:00N 38°53' W 076°31'2 3.8
2017-Oct-11 18:30N 38°52' W 076°29'2 0.1
2017-Oct-10 12:30N 38°51' W 076°27'2 4.1
2017-Oct-10 12:00N 38°52' W 076°29'2 4.9
2017-Oct-10 11:30N 38°51' W 076°32'  
Track history (hours):
 
Tides and Currents Weather Stations Pressure Air Temp Water Temp Dewpoint Dewpoint Depression Visibility Wind Speed Wind Dir Waves Ship Positions

Alcyone

Owner: MUTO, HIRONAO, LA PALMA, CA. More information available from US FCC via Universal Licensing System and Coast Guard Vessel Documentation Center.

Last reported at 2017-Oct-19 17:30 UTC. Time now 2017-Oct-20 01:27 UTC.
Position N 39°02' W 076°32'.

Type: Pleasure craft. MMSI: 338071737.

Date/timePositionNaut miles runAvg speedWind from/ knotsBaromVisibWave heightAir tempDewpointWater temp
2017-Oct-19 17:30N 39°02' W 076°32'3 5.2
2017-Oct-19 17:00N 39°00' W 076°30'2 3.3
2017-Oct-19 16:30N 38°59' W 076°28'2 4.5
2017-Oct-19 16:00N 38°57' W 076°26'2 3.6
2017-Oct-19 15:30N 38°55' W 076°25'3 2.9
2017-Oct-19 14:28N 38°53' W 076°27'2 4.3
2017-Oct-19 14:01N 38°52' W 076°29'2 4.7
2017-Oct-19 13:30N 38°51' W 076°32'  
2017-Oct-12 14:16N 38°51' W 076°32'0 1.7
2017-Oct-12 14:00N 38°51' W 076°32'2 0.1
2017-Oct-11 19:05N 38°53' W 076°32'0 4.4
2017-Oct-11 19:00N 38°53' W 076°31'2 3.8
2017-Oct-11 18:30N 38°52' W 076°29'2 0.1
2017-Oct-10 12:30N 38°51' W 076°27'2 4.1
2017-Oct-10 12:00N 38°52' W 076°29'2 4.9
2017-Oct-10 11:30N 38°51' W 076°32'  

Dump ship's entire track history